Location: Kott?ru
(16.6209°N, 80.6208°E)
Time: 01:24:58
(UTC+00:00)

SL-16 R/B - Pass Details

Date: 18 September 2020
Orbit: 842 x 846 km, 71.0° (Epoch: 26 October)

Event Time Altitude Azimuth Distance (km) Brightness Sun altitude
Exits shadow 23:20:08 25° 282° (WNW) 1,653 3.2 -16.6°
Maximum altitude 23:20:38 25° 290° (WNW) 1,641 3.2 -16.5°
Drops below altitude 10° 23:25:11 10° 345° (NNW) 2,457 4.5 -15.4°
Sets 23:28:04 0° 358° (N) 3,393 5.4 -14.7°
